Home > Time Zones > World Clock > Weather > Serbia > Niš > Past weeks

Flag for Serbia Weather past 2 weeks in Niš, Serbia

Now
64 °F

Scattered clouds.


Feels Like: 64 °F
Forecast: 57 / 70 °F
Wind: 2 mph from West

Location: Nis Airport

Current Time: Apr 27, 2015 at 8:16:21 PM

Latest Report: Apr 27, 2015 at 8:00 PM


Visibility: N/A

Pressure: 29.86 "Hg

Humidity: 60%

Dew point: 50 °F

Location of NišLocation

Historic Weather in Niš — Graph

°F

Niš temperature yesterday

Maximum temperature yesterday: 77 °F (at 3:00 PM)
Minimum temperature yesterday: 46 °F (at 5:00 AM)
Average temperature yesterday: 63 °F

Past Weeks' High & Low Weather Summary

 TemperatureHumidityPressure
High79 °F (Apr 16, 3:00 PM)88% (Apr 18, 2:00 PM)30.36 "Hg (Apr 18, 2:00 PM)
Low34 °F (Apr 20, 5:00 AM)20% (Apr 23, 4:30 PM)29.80 "Hg (Apr 27, 3:30 PM)
Average57 °F52%30.07 "Hg
* Reported Apr 12 7:00 PM — Apr 27 7:00 PM, Niš, Weather by CustomWeather, © 2015

Note: Actual official high and low records may vary slightly from our data, if they occured in-between our weather recording intervals... More about our weather records

Advertising

Niš weather history for previous 24 hours

 ConditionsComfort  
Time TempWeatherWind HumidityBarometerVisibility
7:00 PM
Mon, Apr 27
70 °FScattered clouds.10 mph38%29.83 "HgN/A
6:30 PM72 °FScattered clouds.13 mph36%29.83 "HgN/A
6:00 PM73 °FPassing clouds.12 mph33%29.80 "HgN/A
5:30 PM75 °FPassing clouds.9 mph31%29.80 "HgN/A
5:00 PM75 °FPassing clouds.7 mph29%29.80 "HgN/A
4:30 PM75 °FPassing clouds.7 mph27%29.80 "HgN/A
4:00 PM77 °FPassing clouds.9 mph26%29.83 "HgN/A
3:30 PM79 °FPassing clouds.7 mph30%29.80 "HgN/A
3:00 PM77 °FPassing clouds.8 mph32%29.83 "HgN/A
2:30 PM77 °FPassing clouds.7 mph30%29.83 "HgN/A
2:00 PM77 °FPassing clouds.8 mph32%29.83 "HgN/A
1:30 PM77 °FPassing clouds.9 mph30%29.86 "HgN/A
1:00 PM77 °FSunny.6 mph30%29.86 "Hg10 mi
12:30 PM75 °FPassing clouds.5 mph34%29.89 "HgN/A
12:00 PM73 °FSunny.6 mph36%29.89 "Hg10 mi
11:30 AM72 °FPassing clouds.6 mph41%29.89 "HgN/A
11:00 AM70 °FPassing clouds.6 mph43%29.92 "HgN/A
10:30 AM70 °FPassing clouds.7 mph43%29.92 "HgN/A
9:30 AM68 °FPassing clouds.5 mph49%29.92 "HgN/A
9:00 AM64 °FSunny.1 mph56%29.95 "Hg10 mi
8:30 AM63 °FSunny.2 mph59%29.95 "Hg10 mi
8:00 AM61 °FPassing clouds.3 mph63%29.95 "HgN/A
7:30 AM59 °FPassing clouds.3 mph63%29.95 "HgN/A
7:00 AM55 °FSunny.2 mph77%29.95 "Hg10 mi
6:30 AM54 °FClear.2 mph77%29.92 "Hg10 mi
6:00 AM55 °FClear.2 mph72%29.92 "Hg10 mi
5:30 AM55 °FClear.2 mph72%29.92 "Hg10 mi
5:00 AM55 °FClear.2 mph72%29.92 "Hg10 mi
4:30 AM57 °FClear.1 mph67%29.92 "Hg10 mi
4:00 AM55 °FClear.No wind72%29.92 "Hg10 mi
3:30 AM55 °FClear.2 mph72%29.89 "Hg10 mi
3:00 AM57 °FClear.1 mph67%29.89 "Hg10 mi
2:00 AM59 °FClear.5 mph63%29.89 "Hg10 mi
1:00 AM59 °FClear.2 mph59%29.89 "Hg10 mi
12:30 AM57 °FClear.No wind63%29.89 "Hg10 mi
12:00 AM61 °FClear.2 mph52%29.89 "Hg10 mi
11:30 PM
Sun, Apr 26
61 °FClear.1 mph55%29.89 "Hg10 mi
11:00 PM61 °FClear.1 mph55%29.89 "Hg10 mi
10:30 PM64 °FPassing clouds.2 mph49%29.89 "HgN/A
10:00 PM64 °FPassing clouds.1 mph49%29.89 "HgN/A
9:30 PM64 °FPassing clouds.1 mph49%29.86 "HgN/A
9:00 PM66 °FPassing clouds.2 mph46%29.86 "HgN/A
8:30 PM68 °FPassing clouds.3 mph43%29.86 "HgN/A
8:00 PM68 °FPassing clouds.3 mph43%29.86 "HgN/A
Weather by CustomWeather, © 2015

See weather overviewHow to use our weather pages